Location: Derby
(52.9213°N, 1.4761°W)
Time: 02:50:42
(UTC+01:00)

Vanguard 2 Rocket - Pass Details

Date: 24 May 2025
Orbit: 554 x 3293 km, 32.9° (Epoch: 12 June)

Event Time Altitude Azimuth Distance (km) Brightness Sun altitude
Rises 01:52:58 0° 255° (WSW) 7,030 11.2 -15.5°
Reaches altitude 10° 01:58:55 10° 247° (WSW) 5,711 10.6 -15.3°
Maximum altitude 02:11:31 29° 197° (SSW) 3,440 9.2 -14.8°
Drops below altitude 10° 02:20:07 10° 143° (SE) 3,827 9.8 -14.4°
Sets 02:23:12 0° 131° (SE) 4,453 10.2 -14.2°
